Home   Weather   Lomé   Past weeks

Flag for Togo Past Weather in Lomé, Togo — Yesterday and Last 2 Weeks

82 °F

Passing clouds.

Feels Like: 92 °F
Forecast: N/A
Wind: 6 mph from Southwest

Location: Lome Airport

Current Time: Oct 24, 2016 at 11:40:22 PM

Latest Report: Oct 24, 2016 at 11:00 PM

Visibility: N/A

Pressure: 29.86 "Hg

Humidity: 89%

Dew Point: 79 °F

Location of LoméLocation

Past Weather in Lomé — Graph


Lomé Temperature Yesterday

Maximum temperature yesterday: 88 °F (at 2:00 PM)
Minimum temperature yesterday: 73 °F (at 1:00 AM)
Average temperature yesterday: 80 °F

High & Low Weather Summary for the Past Weeks

High90 °F (Oct 13, 11:00 AM)100% (Oct 12, 3:00 AM)29.98 "Hg (Oct 12, 3:00 AM)
Low73 °F (Oct 21, 11:00 PM)59% (Oct 19, 2:00 PM)29.77 "Hg (Oct 24, 3:00 PM)
Average82 °F83%29.88 "Hg
* Reported Oct 9 10:00 PM — Oct 24 10:00 PM, Lomé, Weather by CustomWeather, © 2016

Note: Actual official high and low records may vary slightly from our data, if they occured in-between our weather recording intervals... More about our weather records


Lomé Weather History for the Previous 24 Hours

Scroll right to see more
Time TempWeatherWind HumidityBarometerVisibility
10:00 PM
Mon, Oct 24
82 °FPassing clouds.7 mph89%29.86 "HgN/A
9:00 PM82 °FPassing clouds.6 mph84%29.86 "HgN/A
8:00 PM82 °FPassing clouds.7 mph89%29.83 "HgN/A
7:00 PM82 °FPassing clouds.9 mph84%29.83 "HgN/A
6:00 PM82 °FPassing clouds.9 mph84%29.80 "HgN/A
5:00 PM84 °FPassing clouds.10 mph79%29.77 "HgN/A
4:00 PM86 °FPassing clouds.10 mph79%29.77 "HgN/A
3:00 PM86 °FPassing clouds.12 mph75%29.77 "HgN/A
2:00 PM88 °FPassing clouds.8 mph70%29.80 "HgN/A
1:00 PM88 °FPassing clouds.9 mph70%29.83 "HgN/A
12:00 PM86 °FPassing clouds.7 mph75%29.86 "HgN/A
11:00 AM88 °FPassing clouds.7 mph75%29.86 "HgN/A
10:00 AM86 °FPassing clouds.8 mph75%29.89 "HgN/A
9:00 AM84 °FPassing clouds.5 mph79%29.89 "HgN/A
8:00 AM82 °FPassing clouds.3 mph84%29.89 "HgN/A
7:00 AM79 °FPassing clouds.2 mph94%29.86 "Hg5 mi
6:00 AM77 °FPassing clouds.No wind100%29.83 "Hg5 mi
5:00 AM77 °FPassing clouds.1 mph100%29.83 "HgN/A
4:00 AM77 °FPassing clouds.1 mph100%29.83 "HgN/A
3:00 AM79 °FPassing clouds.2 mph94%29.83 "HgN/A
2:00 AM79 °FPassing clouds.1 mph94%29.83 "HgN/A
1:00 AM79 °FPassing clouds.1 mph94%29.86 "HgN/A
12:00 AM81 °FPassing clouds.2 mph89%29.86 "HgN/A
11:00 PM
Sun, Oct 23
81 °FPassing clouds.5 mph89%29.89 "HgN/A
Weather by CustomWeather, © 2016

See weather overviewHow to use our weather pages